Weather History for KARR - February, 2013

Change the Weather History Date:

Monday, February 18, 2013

  Actual Average Record
Temperature  
Mean Temperature 40 °F 26 °F  
Max Temperature 53 °F 35 °F 53 °F (2013)
Min Temperature 26 °F 17 °F -8 °F (2006)
Degree Days  
Heating Degree Days 25 39  
Month to date heating degree days 741 753  
Since 1 July heating degree days 4428 4770  
Cooling Degree Days 0 0  
Month to date cooling degree days 0 0  
Year to date cooling degree days 0 0  
Moisture  
Dew Point 33 °F    
Average Humidity 76    
Maximum Humidity 93    
Minimum Humidity 59    
Precipitation  
Precipitation 0.36 in 0.06 in 0.36 in (2013)
Month to date precipitation 1.72 0.91  
Year to date precipitation 4.86 2.38  
Sea Level Pressure  
Sea Level Pressure 29.62 in    
Wind  
Wind Speed 17 mph (SSW)    
Max Wind Speed 36 mph    
Max Gust Speed 43 mph    
Visibility 8 miles    
Events Rain , Snow    
T = Trace of Precipitation, MM = Missing Value Source: NWS Daily Summary

Daily Weather History Graph

Daily Weather History Graph

Search for Another Location

Airport or City:

Trip Planner

Search our weather history database for the weather conditions in past years. The results will help you decide how hot, cold, wet, or windy it might be!

Date:

Astronomy

Feb. 18, 2013 Rise Set
Actual Time 6:44 AM CST 5:31 PM CST
Civil Twilight 6:16 AM CST 5:59 PM CST
Nautical Twilight 5:44 AM CST 6:32 PM CST
Astronomical Twilight 5:11 AM CST 7:04 PM CST
Moon 11:14 AM CST (2/18) 1:26 AM CST (2/18)
Length of Visible Light 11h 43m
Length of Day
10h 46m
First Quarter, 58% of the Moon is Illuminated
Feb 18
First Quarter
Feb 25
Full
Mar 4
Last Quarter
Mar 11
New
Mar 19
First Quarter

Hourly Weather History & Observations

Time (CST) Temp. Windchill Dew Point Humidity Pressure Visibility Wind Dir Wind Speed Gust Speed Precip Events Conditions
12:52 AM 28.0 °F 17.5 °F 19.0 °F 69% 29.98 in 10.0 mi SE 12.7 mph - N/A   Clear
1:52 AM 27.0 °F 16.7 °F 19.0 °F 72% 29.95 in 10.0 mi SE 11.5 mph - N/A   Clear
2:52 AM 30.0 °F 19.5 °F 19.0 °F 64% 29.91 in 10.0 mi SE 13.8 mph 20.7 mph N/A   Clear
4:52 AM 30.0 °F 19.1 °F 19.9 °F 66% 29.85 in 10.0 mi SSE 15.0 mph - N/A   Clear
5:52 AM 30.9 °F 19.8 °F 21.0 °F 67% 29.82 in 10.0 mi SSE 16.1 mph - N/A   Clear
6:52 AM 30.9 °F 20.7 °F 23.0 °F 72% 29.79 in 10.0 mi SSE 13.8 mph - N/A   Clear
8:52 AM 37.0 °F 27.4 °F 27.0 °F 67% 29.76 in 10.0 mi SSE 17.3 mph 24.2 mph N/A   Clear
9:52 AM 41.0 °F 32.8 °F 30.9 °F 67% 29.73 in 10.0 mi South 16.1 mph - N/A   Clear
10:52 AM 46.9 °F - 35.1 °F 63% 29.71 in 10.0 mi South 17.3 mph - N/A   Clear
11:52 AM 52.0 °F - 37.9 °F 59% 29.68 in 10.0 mi South 18.4 mph 32.2 mph N/A   Clear
12:52 PM 48.9 °F - 39.0 °F 69% 29.64 in 10.0 mi South 12.7 mph - N/A   Overcast
1:52 PM 48.9 °F - 39.9 °F 71% 29.62 in 10.0 mi South 12.7 mph - N/A   Overcast
2:52 PM 48.9 °F - 42.1 °F 77% 29.59 in 10.0 mi South 11.5 mph - 0.00 in   Overcast
3:52 PM 48.0 °F - 44.1 °F 86% 29.55 in 10.0 mi South 12.7 mph - 0.00 in   Overcast
4:16 PM 48.2 °F - 44.6 °F 87% 29.52 in 8.0 mi South 9.2 mph - 0.00 in Rain Light Rain
4:52 PM 46.9 °F - 44.1 °F 90% 29.51 in 7.0 mi South 15.0 mph - 0.02 in Rain Light Rain
5:52 PM 46.9 °F - 44.1 °F 90% 29.48 in 10.0 mi South 19.6 mph 27.6 mph 0.01 in Rain Light Rain
7:27 PM 46.4 °F 39.2 °F 44.6 °F 93% 29.43 in 5.0 mi South 18.4 mph 32.2 mph 0.11 in Rain Light Rain
7:40 PM 44.6 °F 35.7 °F 42.8 °F 93% 29.45 in 3.0 mi West 24.2 mph 29.9 mph 0.18 in Rain Heavy Rain
7:45 PM 39.2 °F 29.0 °F 39.2 °F 100% 29.45 in 2.5 mi West 21.9 mph 31.1 mph 0.19 in Rain Rain
7:52 PM 39.0 °F 29.6 °F 37.9 °F 96% 29.47 in 4.0 mi WNW 18.4 mph 26.5 mph 0.20 in Rain Light Rain
7:59 PM 37.4 °F 27.8 °F 37.4 °F 100% 29.46 in 5.0 mi WNW 17.3 mph 25.3 mph 0.01 in Rain Light Rain
8:34 PM 37.4 °F 28.9 °F 35.6 °F 93% 29.46 in 5.0 mi WNW 13.8 mph - 0.04 in Rain Light Rain
8:41 PM 35.6 °F 25.5 °F 35.6 °F 100% 29.46 in 5.0 mi WNW 17.3 mph - 0.05 in Rain Light Rain
8:52 PM 35.1 °F 24.1 °F 34.0 °F 96% 29.49 in 6.0 mi WNW 19.6 mph 29.9 mph 0.05 in Rain Light Rain
9:52 PM 33.1 °F 21.5 °F 32.0 °F 96% 29.52 in 7.0 mi West 19.6 mph 29.9 mph 0.01 in   Overcast
10:29 PM 32.0 °F 18.9 °F 30.2 °F 93% 29.54 in 4.0 mi West 24.2 mph 29.9 mph 0.00 in Snow Light Snow
10:38 PM 32.0 °F 18.1 °F 30.2 °F 93% 29.54 in 3.0 mi West 27.6 mph 34.5 mph 0.00 in Snow Light Snow
10:52 PM 30.9 °F 15.9 °F 28.0 °F 89% 29.57 in 4.0 mi West 31.1 mph 39.1 mph 0.00 in Snow Light Snow
11:18 PM 28.4 °F 11.8 °F 24.8 °F 86% 29.57 in 9.0 mi West 34.5 mph 42.6 mph 0.00 in   Overcast
11:52 PM 27.0 °F 11.0 °F 23.0 °F 85% 29.60 in 10.0 mi West 28.8 mph 39.1 mph 0.00 in   Overcast